Reno - Stead, NV

9:05 PM PDT on March 29, 2017 (GMT -0700)
Reno - Stead

Weather History for KRTS - September, 2013

Change the Weather History Date:

Tuesday, September 3, 2013

  Actual Average (KRNO) Record (KRNO)
Temperature  
Mean Temperature 68 °F -  
Max Temperature 84 °F 86 °F 100 °F (1988)
Min Temperature 51 °F 46 °F 31 °F (1971)
Cooling Degree Days 2    
Growing Degree Days 18 (Base 50)    
Moisture  
Dew Point 47 °F    
Average Humidity 49    
Maximum Humidity 82    
Minimum Humidity 25    
Precipitation  
Precipitation 0.00 in - - ()
Sea Level Pressure  
Sea Level Pressure 30.09 in    
Wind  
Wind Speed 5 mph (West)    
Max Wind Speed 20 mph    
Max Gust Speed 29 mph    
Visibility 10 miles    
Events      
Averages and records for this station are not official NWS values.
T = Trace of Precipitation, MM = Missing Value Source: NWS Daily Summary

Daily Weather History Graph

Daily Weather History Graph

Search for Another Location

Airport or City:

Trip Planner

Search our weather history database for the weather conditions in past years. The results will help you decide how hot, cold, wet, or windy it might be!

Date:

Astronomy

Sep. 03, 2013 Rise Set
Actual Time 6:29 AM PDT 7:26 PM PDT
Civil Twilight 6:02 AM PDT 7:54 PM PDT
Nautical Twilight 5:29 AM PDT 8:27 PM PDT
Astronomical Twilight 4:55 AM PDT 9:00 PM PDT
Moon 4:48 AM PDT (9/3) 6:16 PM PDT (9/3)
Length of Visible Light 13h 52m
Length of Day
12h 57m
Waning Crescent, 3% of the Moon is Illuminated
Sep 3
Waning Crescent
Sep 5
New
Sep 12
First Quarter
Sep 19
Full
Sep 26
Last Quarter

Hourly Weather History & Observations

Time (PDT) Temp. Dew Point Humidity Pressure Visibility Wind Dir Wind Speed Gust Speed Precip Events Conditions
12:15 AM 59.0 °F 50.0 °F 72% 30.09 in 10.0 mi Calm Calm - N/A   Clear
12:35 AM 59.0 °F 48.2 °F 67% 30.09 in 10.0 mi NE 3.5 mph - N/A   Clear
12:55 AM 57.2 °F 48.2 °F 72% 30.10 in 10.0 mi Calm Calm - N/A   Clear
1:15 AM 57.2 °F 48.2 °F 72% 30.10 in 10.0 mi North 3.5 mph - N/A   Clear
1:35 AM 59.0 °F 50.0 °F 72% 30.10 in 10.0 mi Calm Calm - N/A   Clear
1:55 AM 57.2 °F 50.0 °F 77% 30.09 in 10.0 mi NNE 5.8 mph - N/A   Clear
2:15 AM 57.2 °F 48.2 °F 72% 30.09 in 10.0 mi Calm Calm - N/A   Clear
2:35 AM 55.4 °F 46.4 °F 72% 30.09 in 10.0 mi Calm Calm - N/A   Clear
2:55 AM 55.4 °F 46.4 °F 72% 30.09 in 10.0 mi North 4.6 mph - N/A   Clear
3:15 AM 57.2 °F 48.2 °F 72% 30.09 in 10.0 mi North 3.5 mph - N/A   Clear
3:35 AM 57.2 °F 50.0 °F 77% 30.09 in 10.0 mi Calm Calm - N/A   Partly Cloudy
3:55 AM 57.2 °F 48.2 °F 72% 30.09 in 10.0 mi North 5.8 mph - N/A   Scattered Clouds
4:15 AM 57.2 °F 50.0 °F 77% 30.08 in 10.0 mi NNE 5.8 mph - N/A   Partly Cloudy
4:35 AM 57.2 °F 48.2 °F 72% 30.08 in 10.0 mi SE 5.8 mph - N/A   Partly Cloudy
4:55 AM 55.4 °F 48.2 °F 77% 30.08 in 10.0 mi Calm Calm - N/A   Partly Cloudy
5:15 AM 53.6 °F 46.4 °F 77% 30.09 in 10.0 mi WSW 3.5 mph - N/A   Clear
5:35 AM 55.4 °F 46.4 °F 72% 30.08 in 10.0 mi Calm Calm - N/A   Clear
5:55 AM 55.4 °F 46.4 °F 72% 30.08 in 10.0 mi Calm Calm - N/A   Scattered Clouds
6:15 AM 51.8 °F 46.4 °F 82% 30.09 in 10.0 mi North 4.6 mph - N/A   Mostly Cloudy
6:35 AM 55.4 °F 48.2 °F 77% 30.09 in 10.0 mi North 4.6 mph - N/A   Mostly Cloudy
6:55 AM 55.4 °F 48.2 °F 77% 30.10 in 10.0 mi Calm Calm - N/A   Partly Cloudy
7:15 AM 53.6 °F 46.4 °F 77% 30.10 in 10.0 mi NW 3.5 mph - N/A   Partly Cloudy
7:35 AM 53.6 °F 46.4 °F 77% 30.10 in 10.0 mi Calm Calm - N/A   Clear
7:55 AM 55.4 °F 46.4 °F 72% 30.11 in 10.0 mi Calm Calm - N/A   Clear
8:15 AM 59.0 °F 48.2 °F 67% 30.11 in 10.0 mi Calm Calm - N/A   Clear
8:35 AM 60.8 °F 48.2 °F 63% 30.11 in 10.0 mi Calm Calm - N/A   Clear
8:55 AM 64.4 °F 50.0 °F 59% 30.11 in 10.0 mi Calm Calm - N/A   Clear
9:15 AM 66.2 °F 50.0 °F 56% 30.12 in 10.0 mi Calm Calm - N/A   Clear
9:35 AM 69.8 °F 50.0 °F 49% 30.12 in 10.0 mi ESE 3.5 mph - N/A   Clear
9:55 AM 71.6 °F 50.0 °F 46% 30.12 in 10.0 mi ESE 5.8 mph - N/A   Clear
10:15 AM 73.4 °F 48.2 °F 41% 30.12 in 10.0 mi SE 9.2 mph - N/A   Clear
10:35 AM 75.2 °F 48.2 °F 38% 30.12 in 10.0 mi ESE 3.5 mph - N/A   Scattered Clouds
10:55 AM 75.2 °F 48.2 °F 38% 30.12 in 10.0 mi West 5.8 mph - N/A   Mostly Cloudy
11:15 AM 75.2 °F 48.2 °F 38% 30.12 in 10.0 mi Calm Calm - N/A   Overcast
11:35 AM 75.2 °F 46.4 °F 36% 30.11 in 10.0 mi South 4.6 mph - N/A   Mostly Cloudy
11:55 AM 77.0 °F 46.4 °F 34% 30.11 in 10.0 mi Calm Calm - N/A   Overcast
12:15 PM 78.8 °F 46.4 °F 32% 30.10 in 10.0 mi East 8.1 mph - N/A   Overcast
12:35 PM 80.6 °F 46.4 °F 30% 30.10 in 10.0 mi South 9.2 mph - N/A   Scattered Clouds
12:55 PM 80.6 °F 46.4 °F 30% 30.09 in 10.0 mi SE 8.1 mph - N/A   Partly Cloudy
1:15 PM 80.6 °F 46.4 °F 30% 30.09 in 10.0 mi SSW 8.1 mph - N/A   Partly Cloudy
1:35 PM 80.6 °F 44.6 °F 28% 30.09 in 10.0 mi SW 17.3 mph 23.0 mph N/A   Scattered Clouds
1:55 PM 80.6 °F 44.6 °F 28% 30.08 in 10.0 mi SSW 16.1 mph 24.2 mph N/A   Scattered Clouds
2:15 PM 82.4 °F 44.6 °F 26% 30.07 in 10.0 mi SW 19.6 mph 28.8 mph N/A   Scattered Clouds
2:35 PM 84.2 °F 44.6 °F 25% 30.07 in 10.0 mi SW 16.1 mph 27.6 mph N/A   Partly Cloudy
2:55 PM 82.4 °F 42.8 °F 25% 30.07 in 10.0 mi WSW 18.4 mph 27.6 mph N/A   Clear
3:15 PM 84.2 °F 44.6 °F 25% 30.06 in 10.0 mi SW 18.4 mph 24.2 mph N/A   Clear
3:35 PM 84.2 °F 44.6 °F 25% 30.06 in 10.0 mi West 16.1 mph 19.6 mph N/A   Clear
3:55 PM 82.4 °F 44.6 °F 26% 30.06 in 10.0 mi West 18.4 mph 24.2 mph N/A   Clear
4:15 PM 82.4 °F 44.6 °F 26% 30.05 in 10.0 mi WSW 16.1 mph 23.0 mph N/A   Clear
4:35 PM 82.4 °F 44.6 °F 26% 30.05 in 10.0 mi WSW 11.5 mph 21.9 mph N/A   Clear
4:55 PM 82.4 °F 44.6 °F 26% 30.05 in 10.0 mi WSW 19.6 mph 24.2 mph N/A   Clear
5:15 PM 82.4 °F 44.6 °F 26% 30.06 in 10.0 mi WSW 12.7 mph 21.9 mph N/A   Clear
5:35 PM 80.6 °F 44.6 °F 28% 30.06 in 10.0 mi WSW 13.8 mph 21.9 mph N/A   Clear
5:55 PM 80.6 °F 42.8 °F 26% 30.06 in 10.0 mi WSW 17.3 mph 24.2 mph N/A   Clear
6:15 PM 78.8 °F 44.6 °F 30% 30.06 in 10.0 mi West 16.1 mph - N/A   Clear
6:35 PM 77.0 °F 44.6 °F 32% 30.06 in 10.0 mi West 15.0 mph - N/A   Clear
6:55 PM 77.0 °F 44.6 °F 32% 30.06 in 10.0 mi WSW 11.5 mph 19.6 mph N/A   Clear
7:15 PM 75.2 °F 44.6 °F 34% 30.06 in 10.0 mi West 13.8 mph 19.6 mph N/A   Clear
7:35 PM 73.4 °F 44.6 °F 36% 30.07 in 10.0 mi West 15.0 mph 20.7 mph N/A   Clear
7:55 PM 73.4 °F 44.6 °F 36% 30.07 in 10.0 mi West 12.7 mph 19.6 mph N/A   Clear
8:15 PM 71.6 °F 44.6 °F 38% 30.08 in 10.0 mi West 11.5 mph - N/A   Clear
8:35 PM 73.4 °F 44.6 °F 36% 30.09 in 10.0 mi West 10.4 mph - N/A   Mostly Cloudy
8:55 PM 71.6 °F 44.6 °F 38% 30.10 in 10.0 mi West 8.1 mph - N/A   Mostly Cloudy
9:15 PM 71.6 °F 44.6 °F 38% 30.11 in 10.0 mi NNW 8.1 mph - N/A   Mostly Cloudy
9:35 PM 71.6 °F 46.4 °F 41% 30.10 in 10.0 mi NNW 10.4 mph - N/A   Mostly Cloudy
9:55 PM 69.8 °F 46.4 °F 43% 30.11 in 10.0 mi WNW 10.4 mph - N/A   Mostly Cloudy
10:15 PM 69.8 °F 46.4 °F 43% 30.12 in 10.0 mi WNW 4.6 mph - N/A   Overcast
10:35 PM 71.6 °F 46.4 °F 41% 30.12 in 10.0 mi WSW 5.8 mph - N/A   Overcast
10:55 PM 69.8 °F 46.4 °F 43% 30.12 in 10.0 mi West 4.6 mph - N/A   Overcast
11:15 PM 68.0 °F 46.4 °F 46% 30.12 in 10.0 mi West 5.8 mph - N/A   Overcast
11:35 PM 66.2 °F 46.4 °F 49% 30.13 in 10.0 mi NE 3.5 mph - N/A   Overcast
11:55 PM 66.2 °F 44.6 °F 46% 30.13 in 10.0 mi NNE 3.5 mph - N/A   Overcast